[[{"header":{"parameterUnit":"m.s-1","parameterCategory":1,"la1":30.2991,"la2":30.254,"lo1":-89.0895,"lo2":-89.0444,"dy":0.0017,"dx":0.0017,"nx":28,"ny":28,"refTime":"2025-03-19T21:00:00:Z","depth":0,"parameterNumber":2,"parameterNumberName":"U-component_of_WINDS"},"data":[0,0,0,0,0,0,0,0,0,0,0,0,0,0,0,0,0,0,0,0,0,0,0,0,0,0,0,0,0,0,0,0,0,0,0,0,0,0,0,0,0,0,0,0,0,0,0,0,0,0,0,0,0,0,0,0,0,0,5.9918,5.9919,0,5.9999,6.0,6.0001,5.9959,5.9957,5.9955,5.9952,6.0033,6.0037,6.0041,0,0,0,0,0,0,0,0,0,0,0,0,0,5.9725,5.9729,5.9918,5.9919,5.992,5.9999,6.0,6.0001,5.9959,5.9957,5.9954,5.9952,6.0032,6.0037,6.0042,0,0,0,0,0,0,0,0,0,0,0,0,0,5.9808,5.973,5.9918,5.9908,5.9908,5.9999,6.0,6.0002,5.996,5.9957,5.9953,5.995,6.003,6.0036,6.0042,6.0145,0,0,6.0061,6.0064,0,0,0,0,0,0,0,0,5.9803,5.9815,5.9909,5.9909,5.9909,5.9966,5.9962,6.005,5.9961,5.994,5.9952,5.9949,6.0013,6.002,6.0043,6.0149,6.0153,6.0062,6.0066,6.0068,6.007,0,0,0,0,0,0,0,5.9798,5.9811,5.995,5.991,5.9911,5.99,5.9908,5.9978,5.9994,5.9942,5.9939,5.9949,6.0013,6.0037,6.0044,6.0154,6.0062,6.0067,6.0071,6.0073,6.0352,6.0356,0,0,0,0,0,0,5.9793,5.9807,5.9947,5.9952,5.9847,5.9906,5.9915,5.9951,5.9993,5.9996,5.9952,5.9947,6.0028,6.0037,6.0047,6.0172,6.0068,6.0074,6.0078,6.0349,6.0353,6.0357,0,0,0,0,0,0,5.9789,5.9805,5.9944,5.9879,5.9896,5.9913,5.9953,5.9954,5.9978,6.0001,6.0003,5.9974,6.0026,6.0038,6.0122,6.0174,6.0077,6.0083,6.0344,6.035,6.0355,6.0423,0,0,0,0,0,0,5.9783,5.9804,5.9844,5.988,5.9899,6.0018,5.9956,5.9958,5.999,5.9984,6.0022,6.0025,6.0024,6.0113,6.0128,6.0181,6.0087,6.034,6.0347,6.0353,6.0416,6.043,6.0442,0,0,0,0,0,5.9776,5.9858,5.9846,5.9863,5.9949,6.0021,6.0032,6.003,5.9994,6.0034,6.0049,6.0024,6.0167,6.0122,6.0139,6.0194,6.0336,6.0345,6.0353,6.041,6.0427,6.0442,0,0,0,0,0,0,5.9825,5.9863,5.9849,5.9945,5.9981,6.0014,6.0064,6.0048,6.0093,6.0086,6.0081,6.009,6.0178,6.0194,6.0144,6.0298,6.0246,6.0258,6.0284,6.03,6.0313,6.0307,6.0093,0,0,0,0,0,5.9848,5.9904,5.9933,6.0015,6.0034,6.0046,6.0077,6.0073,6.0109,6.0123,6.0144,6.0179,6.0233,6.0267,6.0317,6.0419,6.0427,6.0465,6.0478,6.0489,6.0499,6.0556,6.0574,6.0384,6.0384,6.0384,0,0,5.9893,5.9921,5.9956,6.0026,6.0052,6.0111,6.0059,6.0122,6.0165,6.0133,6.0214,6.0231,6.027,6.0364,6.0406,6.0381,6.0554,6.05,6.0508,6.0512,6.0567,6.0585,6.0601,6.039,6.0389,6.0388,0,0,6.0007,6.0033,6.0105,6.0134,6.0177,6.0185,6.0203,6.0239,6.025,6.0332,6.0309,6.0361,6.0451,6.0481,6.0508,6.0637,6.0617,6.0654,6.0721,6.0777,6.0792,6.0805,6.0852,6.0869,6.0664,6.0664,6.0664,0,6.0058,6.0146,6.0144,6.0211,6.0242,6.0218,6.0292,6.0319,6.0375,6.0398,6.0369,6.0485,6.0509,6.061,6.0643,6.0665,6.0685,6.0648,6.079,6.0803,6.0816,6.086,6.0878,6.0668,6.0668,6.0667,6.0667,0,6.0208,6.0269,6.0322,6.0379,6.0417,6.0486,6.0496,6.0534,6.0528,6.054,6.0624,6.0654,6.071,6.0734,6.0727,6.0836,6.0819,6.079,6.0737,6.0838,6.088,6.0897,6.0674,6.0673,6.0672,6.067,0,0,6.0352,6.041,6.0429,6.0456,6.0503,6.055,6.0619,6.0676,6.071,6.075,6.0808,6.0888,6.0863,6.0893,6.089,6.0939,6.1042,6.0905,6.0905,6.093,6.1165,6.1186,6.1206,6.1029,6.1032,6.1035,6.1162,0,6.0469,6.0591,6.0593,6.0705,6.0763,6.0742,6.0803,6.0838,6.0852,6.0902,6.0917,6.0974,6.0936,6.0954,6.1002,6.1019,6.1089,6.101,6.1083,6.1086,6.1074,6.1228,6.125,6.1368,6.1178,6.1181,6.1183,0,6.0622,6.067,6.0788,6.0829,6.0853,6.0907,6.0961,6.101,6.105,6.1057,6.1093,6.1084,6.1155,6.1101,6.12,6.1146,6.1177,6.119,6.1194,6.1201,6.114,6.1238,6.1405,6.1423,6.1208,6.1206,6.1204,0,6.0717,6.081,6.0894,6.0917,6.0966,6.1006,6.1028,6.1065,6.11,6.1147,6.117,6.1224,6.1254,6.1297,6.1302,6.1262,6.1402,6.1348,6.141,6.141,6.1439,6.1437,6.1614,6.1459,6.1459,6.1458,6.1458,0,6.0847,6.0921,6.0937,6.0989,6.1071,6.1073,6.1155,6.1174,6.1208,6.1263,6.1248,6.13,6.1304,6.1358,6.1363,6.1445,6.1458,6.1465,6.1466,6.1467,6.1466,6.1486,6.1478,6.1463,6.1462,6.1461,6.146,0,6.0966,6.098,6.107,6.1111,6.1123,6.1182,6.1217,6.1266,6.128,6.135,6.1366,6.1387,6.1449,6.146,6.1533,6.1536,6.1634,6.1626,6.1621,6.162,6.1681,6.1676,6.1877,6.1904,6.1732,6.1733,6.1735,0,6.1049,6.1105,6.1153,6.119,6.1215,6.1273,6.131,6.1315,6.1354,6.1406,6.145,6.1511,6.156,6.1662,6.1683,6.1739,6.1733,6.18,6.1741,6.1741,6.1735,6.1731,6.1737,6.181,6.1812,6.1814,6.1815,0,6.1194,6.1199,6.1253,6.131,6.1355,6.14,6.1442,6.1473,6.1484,6.1528,6.1593,6.1632,6.1708,6.177,6.1827,6.1849,6.1835,6.1834,6.1851,6.1852,6.1848,6.1852,6.1652,6.1829,6.1827,6.1826,6.1826,6.1825,6.1298,6.1348,6.1391,6.1452,6.1485,6.1526,6.1575,6.1596,6.165,6.1713,6.1713,6.1785,6.1826,6.1901,6.1928,6.1984,6.1963,6.1988,6.1994,6.2,6.2006,6.1839,6.1995,6.1994,6.1994,6.1994,6.1993,0,6.1443,6.1471,6.1527,6.1588,6.1637,6.1621,6.1667,6.1709,6.1772,6.1813,6.1863,6.1938,6.1999,6.2026,6.2086,6.2126,6.2121,6.2142,6.2138,6.2144,6.2022,6.2001,6.2145,6.2145,6.2145,6.2145,6.2145,6.2145,6.1525,6.161,6.162,6.1722,6.1748,6.1819,6.1847,6.1885,6.1918,6.2004,6.2055,6.2073,6.2108,6.2171,6.2226,6.2233,6.2256,6.228,6.2283,6.2168,6.2153,6.2138,6.2119,6.2285,6.2285,6.2401,6.2402,6.2403]},{"header":{"parameterUnit":"m.s-1","parameterCategory":1,"la1":30.2991,"la2":30.254,"lo1":-89.0895,"lo2":-89.0444,"dy":0.0017,"dx":0.0017,"nx":28,"ny":28,"refTime":"2025-03-19T21:00:00:Z","depth":0,"parameterNumber":3,"parameterNumberName":"V-component_of_WINDS"},"data":[0,0,0,0,0,0,0,0,0,0,0,0,0,0,0,0,0,0,0,0,0,0,0,0,0,0,0,0,0,0,0,0,0,0,0,0,0,0,0,0,0,0,0,0,0,0,0,0,0,0,0,0,0,0,0,0,0,0,-7.7735,-7.7737,0,-7.788,-7.7881,-7.7883,-7.7854,-7.7851,-7.7848,-7.7846,-7.7988,-7.7994,-7.8001,0,0,0,0,0,0,0,0,0,0,0,0,0,-7.7431,-7.7437,-7.7735,-7.7737,-7.7739,-7.788,-7.7882,-7.7883,-7.7854,-7.7851,-7.7848,-7.7845,-7.7986,-7.7994,-7.8001,0,0,0,0,0,0,0,0,0,0,0,0,0,-7.7568,-7.7439,-7.7735,-7.7741,-7.7743,-7.7879,-7.7882,-7.7884,-7.7855,-7.7851,-7.7847,-7.7843,-7.7984,-7.7993,-7.8002,-7.8139,0,0,-7.8031,-7.8035,0,0,0,0,0,0,0,0,-7.756,-7.7579,-7.7739,-7.7741,-7.7744,-7.7845,-7.7826,-7.7969,-7.7856,-7.7812,-7.7846,-7.7841,-7.7943,-7.7956,-7.7991,-7.8146,-7.8152,-7.8032,-7.8037,-7.8041,-7.8044,0,0,0,0,0,0,0,-7.7551,-7.7573,-7.7792,-7.7741,-7.7744,-7.7736,-7.7751,-7.7853,-7.7898,-7.7816,-7.7814,-7.7832,-7.7944,-7.7982,-7.7995,-7.8154,-7.8031,-7.804,-7.8045,-7.8049,-7.843,-7.8434,0,0,0,0,0,0,-7.754,-7.7565,-7.7788,-7.7797,-7.7641,-7.7745,-7.7762,-7.7816,-7.7897,-7.7906,-7.7835,-7.783,-7.7968,-7.7984,-7.7999,-7.8166,-7.8041,-7.805,-7.8055,-7.8425,-7.8431,-7.8435,0,0,0,0,0,0,-7.7533,-7.756,-7.7782,-7.7681,-7.7708,-7.7754,-7.7816,-7.7821,-7.786,-7.7912,-7.7919,-7.7866,-7.7966,-7.7986,-7.8105,-7.8171,-7.8054,-7.8063,-7.842,-7.8427,-7.8433,-7.85,0,0,0,0,0,0,-7.7525,-7.7558,-7.7611,-7.7682,-7.7714,-7.7887,-7.782,-7.7827,-7.7877,-7.7871,-7.7943,-7.7951,-7.7964,-7.8092,-7.8115,-7.8182,-7.807,-7.8414,-7.8423,-7.8431,-7.8492,-7.8509,-7.8522,0,0,0,0,0,-7.7514,-7.7622,-7.7613,-7.764,-7.7781,-7.789,-7.7908,-7.7923,-7.7882,-7.7935,-7.7969,-7.7949,-7.816,-7.8104,-7.813,-7.82,-7.841,-7.842,-7.843,-7.8486,-7.8505,-7.8522,0,0,0,0,0,0,-7.7554,-7.7631,-7.7623,-7.7758,-7.7818,-7.7885,-7.7953,-7.7943,-7.8015,-7.8007,-7.8021,-7.8037,-7.8159,-7.8191,-7.8128,-7.8338,-7.8279,-7.8295,-7.8312,-7.8331,-7.8346,-7.8336,-7.8078,0,0,0,0,0,-7.758,-7.7663,-7.7725,-7.7838,-7.7869,-7.7906,-7.7954,-7.7961,-7.8023,-7.8048,-7.809,-7.815,-7.8231,-7.8283,-7.8359,-7.8497,-7.8513,-7.8559,-7.8574,-7.8586,-7.8599,-7.8676,-7.8697,-7.8469,-7.8468,-7.8468,0,0,-7.7631,-7.7684,-7.7735,-7.7848,-7.7896,-7.7981,-7.7928,-7.802,-7.8083,-7.8061,-7.8177,-7.8211,-7.8279,-7.8409,-7.8468,-7.8439,-7.8666,-7.8599,-7.8608,-7.8615,-7.8689,-7.871,-7.873,-7.8475,-7.8474,-7.8473,0,0,-7.777,-7.7818,-7.7918,-7.7968,-7.8042,-7.8066,-7.8091,-7.816,-7.8183,-7.83,-7.8286,-7.8361,-7.8498,-7.8548,-7.8591,-7.8752,-7.8736,-7.8776,-7.8854,-7.8929,-7.8947,-7.8963,-7.9021,-7.9042,-7.8789,-7.879,-7.879,0,-7.7824,-7.7954,-7.7971,-7.8066,-7.8116,-7.8103,-7.8205,-7.8251,-7.8346,-7.838,-7.8348,-7.8522,-7.8567,-7.8709,-7.8749,-7.8784,-7.8812,-7.8768,-7.8943,-7.896,-7.8975,-7.9031,-7.9052,-7.8794,-7.8793,-7.8793,-7.8793,0,-7.8018,-7.8109,-7.8181,-7.8276,-7.8334,-7.8431,-7.8462,-7.8519,-7.8522,-7.8549,-7.8669,-7.8723,-7.8811,-7.8845,-7.8847,-7.8989,-7.8969,-7.894,-7.8881,-7.9001,-7.9054,-7.9075,-7.88,-7.8799,-7.8797,-7.8796,0,0,-7.8185,-7.829,-7.8316,-7.8359,-7.8441,-7.8511,-7.8608,-7.8697,-7.8746,-7.8812,-7.8894,-7.9013,-7.8987,-7.9036,-7.9044,-7.911,-7.9236,-7.9073,-7.9075,-7.9102,-7.9396,-7.9418,-7.9442,-7.9226,-7.923,-7.9233,-7.9391,0,-7.8331,-7.8505,-7.8524,-7.8679,-7.8764,-7.8754,-7.8839,-7.8898,-7.8927,-7.9002,-7.9033,-7.9117,-7.9077,-7.9107,-7.9172,-7.9206,-7.9295,-7.9195,-7.9302,-7.9305,-7.9286,-7.9469,-7.9492,-7.9638,-7.9411,-7.9415,-7.9417,0,-7.8525,-7.86,-7.8764,-7.8837,-7.8873,-7.8949,-7.9033,-7.9105,-7.9172,-7.9189,-7.9246,-7.9246,-7.9346,-7.9284,-7.9422,-7.9354,-7.9399,-7.9423,-7.9429,-7.9439,-7.9368,-7.9485,-7.9684,-7.9707,-7.945,-7.9447,-7.9445,0,-7.8631,-7.8773,-7.889,-7.8928,-7.9015,-7.9069,-7.9108,-7.9171,-7.9224,-7.9297,-7.9332,-7.9414,-7.946,-7.9524,-7.9546,-7.9498,-7.9684,-7.9622,-7.97,-7.9699,-7.9739,-7.9736,-7.9948,-7.9767,-7.9767,-7.9767,-7.9766,0,-7.8793,-7.8894,-7.894,-7.9012,-7.9125,-7.9146,-7.9257,-7.9292,-7.935,-7.9428,-7.9424,-7.9497,-7.9522,-7.9599,-7.9617,-7.9729,-7.9749,-7.9765,-7.9769,-7.9766,-7.9764,-7.9795,-7.9786,-7.9772,-7.9771,-7.977,-7.9769,0,-7.893,-7.8965,-7.9092,-7.9166,-7.9187,-7.9267,-7.9329,-7.9399,-7.9428,-7.9527,-7.9552,-7.9597,-7.9688,-7.9717,-7.9826,-7.9838,-7.997,-7.9964,-7.9948,-7.9948,-8.0024,-8.0017,-8.0264,-8.0298,-8.0094,-8.0096,-8.0098,0,-7.9032,-7.911,-7.9193,-7.9246,-7.9288,-7.9374,-7.9429,-7.9452,-7.9509,-7.9594,-7.9653,-7.9744,-7.9818,-7.9964,-8.0006,-8.009,-8.0086,-8.0167,-8.0099,-8.0094,-8.0088,-8.0084,-8.0092,-8.018,-8.0182,-8.0184,-8.0185,0,-7.9208,-7.9222,-7.9302,-7.939,-7.9456,-7.9525,-7.9592,-7.9636,-7.9669,-7.9733,-7.9828,-7.9886,-8.0,-8.009,-8.0176,-8.0214,-8.0206,-8.0207,-8.0229,-8.0227,-8.0215,-8.0224,-7.9984,-8.0201,-8.0199,-8.0198,-8.0197,-8.0197,-7.9331,-7.9401,-7.9471,-7.9561,-7.9615,-7.9678,-7.9748,-7.9787,-7.9867,-7.9963,-7.9971,-8.0074,-8.0141,-8.0256,-8.0299,-8.0379,-8.0356,-8.0388,-8.0396,-8.0404,-8.041,-8.0203,-8.0395,-8.0394,-8.0394,-8.0393,-8.0393,0,-7.9508,-7.9553,-7.9636,-7.9732,-7.9803,-7.9791,-7.9865,-7.9925,-8.0016,-8.008,-8.0154,-8.0264,-8.0352,-8.0402,-8.049,-8.0545,-8.0543,-8.0567,-8.0563,-8.0573,-8.0426,-8.0398,-8.0567,-8.0567,-8.0567,-8.0567,-8.0567,-8.0567,-7.9608,-7.9726,-7.9749,-7.9894,-7.9938,-8.0041,-8.0084,-8.0143,-8.0194,-8.0318,-8.0392,-8.0425,-8.0484,-8.0577,-8.0657,-8.0669,-8.0702,-8.0729,-8.0739,-8.0601,-8.0583,-8.0566,-8.054,-8.0736,-8.0736,-8.0879,-8.0881,-8.0882]}]]